This demonstration page uses our WeatherBlox Daily Observations layout. Learn more.

Hourly Observations for October 5, 2020

Temp ( °F °C ) Dew Point ( °F °C ) Humidity (%) Winds ( mph kmh ) Pressure ( in mb ) Visibility ( mi km ) Precip ( " mm )
12:54 am 00:54 Clear 51 10.6 40 4.4 66 66 S 13 20 30.09 1019 10 16.0934 0 0
1:54 am 01:54 Clear 51 10.6 39 3.9 64 64 SSE 12 19 30.08 1019 10 16.0934 0 0
2:54 am 02:54 Clear 52 11.1 39 3.9 61 61 S 15 24 30.06 1018 10 16.0934 0 0
3:54 am 03:54 Clear 51 10.6 39 3.9 64 64 S 14 22 30.04 1017 10 16.0934 0 0
4:54 am 04:54 Clear 52 11.1 39 3.9 61 61 S 16 26 30.02 1017 10 16.0934 0 0
5:54 am 05:54 Clear 52 11.1 39 3.9 61 61 S 17 28 30 1016 10 16.0934 0 0
6:54 am 06:54 Clear 51 10.6 39 3.9 64 64 S 18 30 29.99 1016 10 16.0934 0 0
7:54 am 07:54 Sunny 52 11.1 40 4.4 64 64 S 15 24 29.99 1016 10 16.0934 0 0
8:54 am 08:54 Sunny 55 12.8 41 5 59 59 S 18 30 29.97 1015 10 16.0934 0 0
10:54 am 10:54 Sunny 65 18.3 42 5.6 43 43 SSW 24 39 29.94 1014 10 16.0934 0 0
11:54 am 11:54 Sunny 69 20.6 43 6.1 39 39 SSW 22 35 29.9 1012 10 16.0934 0 0
12:54 pm 12:54 Sunny 72 22.2 44 6.7 37 37 SSW 23 37 29.88 1012 10 16.0934 0 0
1:54 pm 13:54 Sunny 76 24.4 45 7.2 33 33 SSW 24 39 29.85 1011 10 16.0934 0 0
2:54 pm 14:54 Sunny 78 25.6 46 7.8 32 32 SSW 18 30 29.84 1011 10 16.0934 0 0
3:54 pm 15:54 Sunny 79 26.1 46 7.8 31 31 WSW 14 22 29.84 1011 10 16.0934 0 0
4:54 pm 16:54 Sunny 79 26.1 46 7.8 31 31 SSW 14 22 29.84 1011 10 16.0934 0 0
5:54 pm 17:54 Sunny 78 25.6 48 8.9 35 35 SSW 7 11 29.85 1011 10 16.0934 0 0
6:54 pm 18:54 Sunny 70 21.1 48 8.9 46 46 Calm 29.87 1012 10 16.0934 0 0
7:54 pm 19:54 Clear 62 16.7 48 8.9 60 60 Calm 29.9 1012 10 16.0934 0 0
8:54 pm 20:54 Clear 61 16.1 49 9.4 65 65 NNW 3 6 29.92 1013 10 16.0934 0 0
9:54 pm 21:54 Clear 53 11.7 45 7.2 74 74 N 7 11 29.96 1014 8 12.87472 0 0
10:54 pm 22:54 Clear 55 12.8 47 8.3 74 74 N 8 13 29.96 1015 10 16.0934 0 0
11:54 pm 23:54 Clear 53 11.7 45 7.2 74 74 N 7 11 29.98 1015 10 16.0934 0 0

Powered by AerisWeather